Regional Weather Roundup
Issued by NWS Grand Forks, ND

Home | Current Version | Previous Version | Graphics & Text | Print | Product List | Glossary On
Versions: 1 2 3 4 5 6 7 8 9 10 11 12 13 14 15 16 17 18 19 20 21 22 23 24 25 26 27 28 29 30 31 32 33 34 35 36 37 38 39 40 41 42 43 44 45 46 47 48 49 50
000
ASUS43 KFGF 092031
RWRFGF
PRAIRIE TO PINES  WEATHER ROUNDUP
NATIONAL WEATHER SERVICE EASTERN NORTH DAKOTA/GRAND FORKS ND
300 PM CDT WED JUL 09 2014

 **SATELLITE DATA USED TO AUGMENT SKY COVER AT AUTOMATED STATIONS**
 *****  WEATHER ACROSS EASTERN NORTH DAKOTA  *****

CITY           SKY/WX    TMP DP  RH WIND       PRES   REMARKS
GRAND FORKS    MOSUNNY   72  50  45 N8        30.01F
GRAND FRKS AFB SUNNY     72  50  46 VRB6      30.03F
GRAND FRKS NWS   N/A     73 N/A N/A N7          N/A
DEVILS LAKE    CLOUDY    70  50  49 CALM      30.02S
FARGO          SUNNY     75  50  41 N8        30.01F
WAHPETON ARPT  PTCLDY    75  45  33 N8        30.01S
$$

 ***** WEATHER ACROSS CENTRAL AND WESTERN NORTH DAKOTA  *****

CITY           SKY/WX    TMP DP  RH WIND       PRES   REMARKS
BISMARCK       MOSUNNY   77  57  50 VRB3      30.01F HAZE
MINOT          MOSUNNY   75  56  51 SE8       29.99F
JAMESTOWN      MOSUNNY   73  52  47 VRB3      30.02F
MINOT AFB      SUNNY     75  58  56 SE6       29.98F
GARRISON         N/A     75  56  51 S7        30.00F
WILLISTON      SUNNY     82  49  31 SE6       29.96F
DICKINSON      MOSUNNY   79  53  40 S7        29.99F
HETTINGER      MOSUNNY   80  52  37 SE9       30.02F
$$

 *****  OTHER AIRPORT OBSERVATIONS IN OUR AREA  *****

CITY           SKY/WX    TMP DP  RH WIND       PRES   REMARKS
WALHALLA       FAIR      72  50  46 N8          N/A
GRAFTON AIRPOR FAIR      72  48  43 NW7       30.02S
VALLEY CITY AR FAIR      72  50  46 CALM      30.03S
CANDO          MOCLDY    72  52  49 S8        30.03S
CAVALIER APRT  FAIR      72  50  46 NW5       30.02S
GWINNER        PTCLDY    75  54  46 NW3       30.03F
SHEYENNE NWR     N/A     77  53  43 N2        29.95S
ROLLA            N/A     68  52  56 S8        30.03F
 ***** THE ABOVE OBSERVATIONS ARE NON NWS ARE NOT QUALITY
       CONTROLLED AND MAY MIS-REPORT RAIN FOR SNOW...
$$

  *****  WEATHER ACROSS NORTHERN MINNESOTA  *****

CITY           SKY/WX    TMP DP  RH WIND       PRES   REMARKS
FLAG ISLAND    MOSUNNY   70  54  56 S5        29.99S
WARROAD        MOSUNNY   68  55  64 E6        30.00S
ROSEAU         MOSUNNY   70  54  56 W3        30.00S
HALLOCK        MOSUNNY   72  50  46 NW5       30.01S
THF RVR FALLS  MOSUNNY   70  48  46 NW3       30.01F
BAUDETTE       SUNNY     70  49  47 NW8       30.01S
WASKISH        MOSUNNY   70  54  56 SW6       30.01R
CROOKSTON      SUNNY     72  52  49 NW5       30.02S
$$
  *****  WEATHER ACROSS CENTRAL AND WEST MINNESOTA  *****

CITY           SKY/WX    TMP DP  RH WIND       PRES   REMARKS
FOSSTON        MOSUNNY   70  50  49 CALM      30.02S
BEMIDJI        MOSUNNY   71  51  48 N7        30.00F
PARK RAPIDS    MOSUNNY   73  51  46 W8        30.00F
ELBOW LAKE     MOCLDY    72  52  49 N10       30.01F
WADENA         SUNNY     72  52  49 NW7       30.00S
DETROIT LAKES  SUNNY     70  52  52 N7        30.03S
MOORHEAD       SUNNY     73  46  38 NE5       30.02F
FERGUS FALLS   SUNNY     72  48  43 NW9G16    30.01S
MORRIS MN      SUNNY     75  55  50 N9        30.00S
STAPLES        MOSUNNY   73  48  40 W7        30.00S
$$
  *****  WEATHER ELSEWHERE ACROSS MINNESOTA  *****

CITY           SKY/WX    TMP DP  RH WIND       PRES   REMARKS
DULUTH         MOSUNNY   70  48  45 NW8       29.98F
INTRNTL FALLS  PTSUNNY   69  48  47 CALM      29.99S
ELY            MOSUNNY   66  43  42 CALM      29.98F
CLOQUET        PTSUNNY   72  46  40 NW10      29.99S
WHEATON        SUNNY     73  54  49 W7        30.03S
BRAINERD       PTSUNNY   77  52  41 VRB7      30.00F
HIBBING        SUNNY     69  49  48 NW9       29.99S
ALEXANDRIA     SUNNY     74  49  41 NW9       30.03S
SAINT CLOUD    MOSUNNY   79  51  37 VRB5      29.99S
MINNEAPOLIS    MOSUNNY   74  54  49 N6        29.99F
$$

  *****  WEATHER ACROSS SOUTH DAKOTA  *****

CITY           SKY/WX    TMP DP  RH WIND       PRES   REMARKS
SIOUX FALLS    MOSUNNY   81  57  43 NW6       30.02F
BROOKINGS      NOT AVBL
WATERTOWN      PTSUNNY   77  53  43 VRB7      30.03S
HURON          SUNNY     81  54  39 VRB5      30.00F HAZE
SISSETON         N/A     76  54  46 NE8       30.01F
ABERDEEN       MOSUNNY   76  56  49 VRB5      30.02F
MITCHELL       SUNNY     82  55  39 E6        30.00F HAZE
PIERRE         MOSUNNY   82  51  34 VRB6      29.98F
MOBRIDGE       SUNNY     79  54  41 VRB5      29.99F HAZE
RAPID CITY     SUNNY     78  54  43 E12G22    30.03F
$$

  *****  SOME WEATHER IN NEARBY STATES *****

CITY           SKY/WX    TMP DP  RH WIND       PRES   REMARKS
GLASGOW MT     SUNNY     87  48  25 SE12G18   29.89F
GREAT FALLS MT MOSUNNY   86  46  24 CALM      29.90F
CHEYENNE WY    MOSUNNY   83  52  34 S8        30.13F
SCOTTSBLUFF NE SUNNY     88  59  37 SE7       29.99F
OMAHA NE       MOSUNNY   83  56  39 W8        30.05S
DES MOINES IA  MOSUNNY   79  55  43 W8        30.04S
DAVENPORT IA   MOSUNNY   75  55  49 NW9       30.02S
CHICAGO IL     MOSUNNY   78  53  41 NW14      29.95R
EAU CLAIRE WI  MOSUNNY   74  53  48 VRB3      30.00S
LA CROSSE WI   SUNNY     77  52  41 NW9       30.00S
$$

  *****  SOME NATIONAL WEATHER *****

CITY           SKY/WX    TMP DP  RH WIND       PRES   REMARKS
LA GUARDIA NY  PTSUNNY   85  69  58 SE15      29.86F
RALEIGH NC     PTSUNNY   86  66  51 S16G31    29.96R
ATLANTA GA     PTSUNNY   89  64  43 W12G20    30.02F HX  90
NEW ORLEANS LA TSTM      75  72  90 N15       30.09R VSB 1
OKLAHOMA CITY  MOSUNNY   84  68  58 S7        30.04F
ALBUQUERQUE NM PTSUNNY   86  47  25 W7        30.17F
SALT LAKE CITY MOSUNNY   92  47  21 S6        29.98F
LOS ANGELES CA MOSUNNY   75  62  64 W10       29.95F
BOISE ID       CLOUDY    90  45  21 NW17      29.95S
SEATTLE WA     MOSUNNY   72  56  57 W8        30.03F
$$

*** WEATHER ACROSS MANITOBA...SASKATCHEWAN AND ONTARIO ***
                ***ONTARIO***

CITY           SKY/WX    TMP DP  RH WIND       PRES   REMARKS
GERALDTON      PTSUNNY   63  41  45 N13       29.89R
THUNDER BAY    MOSUNNY   72  46  40 W8G17     29.93R
SIOUX LOOKOUT  PTSUNNY   68  50  52 VRB7      29.98S
TORONTO        PTSUNNY   72  50  46 W15G21    29.90R
BIG TROUT LK   PTSUNNY   66  46  48 S6        29.90S
PICKLE LAKE    PTSUNNY   68  41  37 VRB8      29.93S
DRYDEN         MOSUNNY   68  43  40 VRB5      29.99S
KENORA         PTSUNNY   68  45  42 W9        30.01S
$$
                *** MANITOBA***

CITY           SKY/WX    TMP DP  RH WIND       PRES   REMARKS
BRANDON        PTSUNNY   72  50  46 W9        30.00F
DAUPHIN        MOSUNNY   75  54  46 SW12      29.95F
ISLAND LAKE    PTSUNNY   68  48  49 SW2       29.91F
PILOT MOUND      N/A     66  50  55 SE3         N/A
THE PAS        MOSUNNY   79  57  47 SW14      29.81F
THOMPSON       CLOUDY    64  61  88 S3        29.78
WINNIPEG       MOSUNNY   70  46  43 CALM      30.01F
LYNN LAKE      PTSUNNY   73  55  53 NW6       29.73S
CHURCHILL      CLOUDY    63  52  67 SW15G23   29.74F
GILLAM         LGT RAIN  63  52  67 S10       29.82F
$$
                ***SASKATCHEWAN***

CITY           SKY/WX    TMP DP  RH WIND       PRES   REMARKS
ESTEVAN        PTSUNNY   77  57  50 SE6       29.97F HAZE
KINDERSLEY     MOSUNNY   79  61  53 S13G18    29.82F
LLOYDMINSTER   MOSUNNY   81  57  44 S13G18    29.76F
PRINCE ALBERT  MOSUNNY   79  61  53 SW15G21   29.83F SMOKE
REGINA         MOSUNNY   77  59  53 S12       29.93F
YORKTON        SUNNY     73  54  49 SW8       29.95F
N. BATTLEFORD  NOT AVBL
LA RONGE       MOSUNNY   79  59  50 SE9       29.72F
SASKATOON      MOSUNNY   81  57  44 S15       29.86F SMOKE
SWIFT CURRENT  SUNNY     81  52  36 S12G17    29.87F
$$
NOTE: THESE ARE AUTOMATED STATIONS WITH LIMITED QUALITY CONTROL
      "FAIR" INDICATES FEW OR NO CLOUDS BELOW 12,000 FEET WITH NO
      SIGNIFICANT WEATHER AND/OR OBSTRUCTIONS TO VISIBILITY.
      SKY/WX - SKY CONDITION AND SIGNIFICANT WEATHER.
      TMP - AIR TEMPERATURE.    DP   - DEWPOINT TEMPERATURE.
      RH  - RELATIVE HUMIDITY.  PRES - PRESSURE.
      HX  - HEAT INDEX.         WCI  - WIND CHILL INDEX.
$


USA.gov is the U.S. government's official web portal to all federal, state and local government web resources and services.